{"data":{"norad_id":61958,"intl_designator":"2024-209V","name":"STARLINK-32566","alt_names":[],"object_type":"PAYLOAD","status":"ACTIVE","operator":null,"country":"US","launch_date":"2024-11-14","launch_site_code":"AFWTR","launch_vehicle":null,"mission":null,"orbit_class":"UNKNOWN","rcs_meters":null,"size_class":null,"mass_kg":null,"dimensions":null,"purposes":["comms"],"wikipedia_slug":null,"has_3d_model":false,"image_url":null,"decayed_at":null,"tle_current":{"epoch":"2026-05-25T03:53:59.313120Z","epoch_age_seconds":71560,"freshness":"FRESH","line1":"1 61958U 24209V   26145.16249205  .00038196  00000+0  88186-3 0  9993","line2":"2 61958  53.1587 144.4647 0001035  87.9843 272.1282 15.42192272 86663","mean_motion":15.42192272,"eccentricity":0.0001035,"inclination_deg":53.1587,"raan_deg":144.4647,"arg_perigee_deg":87.9843,"mean_anomaly_deg":272.1282,"bstar":0.00088186,"rev_number":8666,"period_min":93.373571255971,"perigee_km":438.93489927204,"apogee_km":440.34617922266,"semimajor_km":6817.7775392474,"source":"CELESTRAK","updated_at":"2026-05-25T13:38:19.490357Z"}}}